TimeEST,TemperatureF,Dew PointF,Humidity,Sea Level PressureIn,VisibilityMPH,Wind Direction,Wind SpeedMPH,Gust SpeedMPH,PrecipitationIn,Events,Conditions,WindDirDegrees,DateUTC
12:53 AM,39.0,30.0,70,30.16,10.0,SSE,11.5,-,N/A,,Overcast,150,2013-01-11 05:53:00
1:53 AM,39.9,32.0,73,30.14,10.0,SSE,11.5,-,0.01,Rain,Light Rain,150,2013-01-11 06:53:00
2:53 AM,41.0,33.1,73,30.12,10.0,SE,13.8,-,0.01,,Overcast,140,2013-01-11 07:53:00
3:53 AM,41.0,35.1,79,30.09,9.0,SSE,16.1,-,0.00,Rain,Light Rain,160,2013-01-11 08:53:00
4:53 AM,41.0,37.9,89,30.03,10.0,SSE,13.8,-,0.04,Rain,Light Rain,150,2013-01-11 09:53:00
5:53 AM,42.1,37.9,85,30.00,10.0,SSE,15.0,-,0.00,,Mostly Cloudy,150,2013-01-11 10:53:00
6:53 AM,44.1,41.0,89,29.98,5.0,South,15.0,-,0.06,Rain,Rain,170,2013-01-11 11:53:00
7:53 AM,44.1,42.1,93,29.98,7.0,South,11.5,-,0.06,Rain,Light Rain,180,2013-01-11 12:53:00
8:53 AM,44.1,43.0,96,29.96,3.0,SSE,10.4,-,0.22,Rain,Rain,150,2013-01-11 13:53:00
9:11 AM,46.4,44.6,93,29.94,2.5,South,10.4,-,0.09,Rain,Rain,170,2013-01-11 14:11:00
9:23 AM,44.6,44.6,100,29.94,2.5,South,11.5,-,0.11,Rain,Light Rain,170,2013-01-11 14:23:00
9:40 AM,44.6,44.6,100,29.94,3.0,South,8.1,-,0.12,Rain,Light Rain,170,2013-01-11 14:40:00
9:53 AM,46.0,45.0,96,29.95,5.0,SSE,10.4,-,0.12,Rain,Light Rain,160,2013-01-11 14:53:00
10:00 AM,46.4,44.6,93,29.92,4.0,SSE,11.5,-,0.00,,Overcast,160,2013-01-11 15:00:00
10:53 AM,50.0,48.0,93,29.91,10.0,South,18.4,-,0.03,,Overcast,170,2013-01-11 15:53:00
11:08 AM,50.0,48.2,94,29.88,10.0,South,17.3,25.3,N/A,,Overcast,180,2013-01-11 16:08:00
11:11 AM,51.8,48.2,88,29.88,10.0,South,16.1,-,N/A,,Overcast,180,2013-01-11 16:11:00
11:18 AM,51.8,48.2,88,29.88,10.0,South,15.0,-,N/A,,Overcast,190,2013-01-11 16:18:00
11:53 AM,53.1,51.1,93,29.90,10.0,SSW,18.4,-,N/A,,Overcast,200,2013-01-11 16:53:00
12:42 PM,53.6,51.8,94,29.88,10.0,SW,15.0,-,N/A,,Overcast,230,2013-01-11 17:42:00
12:53 PM,54.0,51.1,90,29.90,10.0,SW,13.8,-,N/A,,Overcast,220,2013-01-11 17:53:00
1:09 PM,55.4,51.8,88,29.88,10.0,SW,15.0,-,N/A,,Scattered Clouds,230,2013-01-11 18:09:00
1:53 PM,55.9,51.1,84,29.90,10.0,SW,11.5,-,N/A,,Scattered Clouds,230,2013-01-11 18:53:00
3:53 PM,55.0,51.1,86,29.92,10.0,SSW,8.1,-,N/A,,Overcast,210,2013-01-11 20:53:00
4:53 PM,54.0,48.0,80,29.94,10.0,SW,10.4,-,N/A,,Scattered Clouds,230,2013-01-11 21:53:00
5:53 PM,52.0,46.0,80,29.95,10.0,SW,9.2,-,N/A,,Clear,230,2013-01-11 22:53:00
6:53 PM,48.0,45.0,89,29.96,10.0,SSW,5.8,-,N/A,,Clear,200,2013-01-11 23:53:00
7:53 PM,45.0,43.0,93,29.97,10.0,South,6.9,-,N/A,,Clear,180,2013-01-12 00:53:00
8:53 PM,45.0,43.0,93,29.97,10.0,South,8.1,-,N/A,,Clear,180,2013-01-12 01:53:00
9:53 PM,48.0,46.0,93,29.96,9.0,South,9.2,-,N/A,,Clear,170,2013-01-12 02:53:00
10:53 PM,48.0,45.0,89,29.95,8.0,South,10.4,-,N/A,,Clear,170,2013-01-12 03:53:00